Location: Unspecified
(50.7693°N, 0.0000°E)
Time: 21:07:09
(UTC+00:00)

Transit 2A - Pass Details

Date: 25 June 2019
Orbit: 597 x 962 km, 66.7° (Epoch: 21 August)

Event Time Altitude Azimuth Distance (km) Brightness Sun altitude
Rises 03:56:11 0° 298° (WNW) 3,618 9.2 0.2°
Reaches altitude 10° 03:59:48 10° 317° (NW) 2,632 8.7 0.6°
Maximum altitude 04:03:42 17° 357° (N) 2,106 8.8 1.1°
Drops below altitude 10° 04:07:26 10° 37° (NE) 2,500 10.4 1.6°
Sets 04:10:45 0° 58° (ENE) 3,361 12.7 2.0°
